Location: Eimen
(51.8766°N, 9.7806°E)
Time: 11:26:05
(UTC+00:00)

RESURS DK-1 - Pass Details

Date: 23 May 2024
Orbit: 541 x 547 km, 69.9° (Epoch: 23 June)

Event Time Altitude Azimuth Distance (km) Brightness Sun altitude
Rises 02:03:31 0° 325° (NW) 2,722 6.1 -8.9°
Reaches altitude 10° 02:05:44 10° 322° (NW) 1,826 5.1 -8.7°
Maximum altitude 02:09:45 60° 243° (WSW) 630 2.3 -8.3°
Drops below altitude 10° 02:13:45 10° 163° (SSE) 1,816 4.7 -7.9°
Sets 02:15:57 0° 159° (SSE) 2,706 5.6 -7.7°
